Hourly Weather Roundup
Issued by NWS Central Illinois

Home | Current Version | Previous Version | Text Only | Print | Product List | Glossary On
Versions: 1 2 3 4 5 6 7 8 9 10 11 12 13 14 15 16 17 18 19 20 21 22 23 24 25 26 27 28 29 30 31 32 33 34 35 36 37 38 39 40 41 42 43 44 45 46 47 48 49 50
000
NZUS43 KILX 300510
HWRILX

AREA WEATHER ROUNDUP
NATIONAL WEATHER SERVICE, LINCOLN IL
1200 AM CDT SAT JUL 30 2016


CITY           SKY/WX    TMP DP  RH WIND       PRES   REMARKS
BLOOMINGTON    PTCLDY    70  68  93 N8        29.95R
CHAMPAIGN      PTCLDY    67  65  93 SW6       29.93S
DANVILLE       CLEAR     67  67  99 CALM      29.89S
DECATUR        CLEAR     72  66  81 W5        29.93S
EFFINGHAM      CLEAR     70  70 100 CALM      29.94F
FLORA          CLEAR     73  71  93 CALM      29.92F
GALESBURG      CLOUDY    66  66  98 CALM      29.95S
JACKSONVILLE   CLEAR     66  65  94 SW5       29.95R
LACON          CLOUDY    69  68  96 NE3       29.93F FOG
LAWRENCEVILLE  CLEAR     71  70  96 SW3         N/A
LITCHFIELD       N/A    N/A N/A N/A MISG        N/A
$$


CITY           SKY/WX    TMP DP  RH WIND       PRES   REMARKS
LINCOLN        CLEAR     71  67  88 CALM      29.92S
MACOMB         CLEAR     65  65  97 W5        29.96S
MATTOON        CLEAR     71  67  87 W3        29.92F
MT CARMEL AP   FOG       70  69  97 CALM      29.93S VSB 1/4
OLNEY-NOBLE AP CLOUDY    68  68 100 CALM      29.93S
PARIS          CLEAR     67  67 100 CALM      29.92S
PEORIA         PTCLDY    70  68  93 N3        29.93S
PONTIAC        PTCLDY    70  70 100 CALM      29.94R FOG
RANTOUL        NOT AVBL
ROBINSON       CLEAR     67  67  98 CALM      29.92F
SPRINGFIELD    CLEAR     69  66  90 SW3       29.93S
TAYLORVILLE    CLEAR     67  66  98 MISG      29.94F
$$

...REGIONAL REPORTS...


CITY           SKY/WX    TMP DP  RH WIND       PRES   REMARKS
CHICAGO O`HARE MOCLDY    71  67  87 VRB7      29.95S
KANKAKEE       PTCLDY    67  65  93 NE3       29.94R
MOLINE         CLOUDY    71  67  87 E6        29.95S
MOUNT STERLING CLEAR     66  64  93 W5        29.95S
MOUNT VERNON   CLOUDY    73  68  83 CALM      29.94S
PITTSFIELD     CLEAR     68  66  94 CALM      29.97S
QUINCY         CLEAR     69  67  93 W3        29.96R
ROCKFORD       PTCLDY    68  65  90 NE7       29.98S
$$


CITY           SKY/WX    TMP DP  RH WIND       PRES   REMARKS
BURLINGTON     MOCLDY    68  67  96 N6        29.95R
CEDAR RAPIDS   CLOUDY    68  68 100 NE6       29.98R
DES MOINES     PTCLDY    68  64  87 N5        30.00R
KIRKSVILLE     CLEAR     65  63  93 NW3       30.00R
OTTUMWA        CLOUDY    66  64  93 N5        29.99R
ST LOUIS       PTCLDY    77  67  71 N6        29.96R
$$


CITY           SKY/WX    TMP DP  RH WIND       PRES   REMARKS
TERRE HAUTE    CLEAR     69  67  93 CALM      29.91F
EVANSVILLE     PTCLDY    73  71  93 CALM      29.92F
INDIANAPOLIS   PTCLDY    72  68  87 E6        29.92F
LAFAYETTE      CLEAR     69  68  96 CALM      29.91S
MADISON        CLOUDY    66  61  84 N6        29.99F
MILWAUKEE      CLOUDY    71  65  81 E8        29.98S
$$






USA.gov is the U.S. government's official web portal to all federal, state and local government web resources and services.